Duchifat 3
1 44854U 19089C   25094.58025575  .00061498  00000-0  15037-2 0  9995
2 44854  36.9467  52.9108 0003611 314.7413  45.3047 15.39745559292741
TO-108
1 44881U 19093C   25094.75133608  .00002729  00000-0  32247-3 0  9991
2 44881  97.7949 171.7768 0015315  88.6846 271.6124 14.85397643286306
FloripaSat 1
1 44885U 19093G   25094.75477097  .00013537  00000-0  11656-2 0  9997
2 44885  97.8147 182.2698 0011130  69.5547 290.6868 14.97427811286891
RS-44
1 44909U 19096E   25094.72684951  .00000033  00000-0  77786-4 0  9998
2 44909  82.5166 271.0379 0218472  89.5954 273.0176 12.79739851246313
UPMSat 2
1 46276U 20061E   25094.73290334  .00081070  00000-0  10200-2 0  9996
2 46276  97.2506 167.3245 0001780 147.2693 212.8674 15.59390156255176
SALSAT
1 46495U 20068K   25094.48491232  .00015836  00000-0  70707-3 0  9994
2 46495  97.8564  69.5401 0013079  40.5157 319.7049 15.21381554248479
CubeSX-Sirius-HSE
1 47951U 21022V   25094.83162762  .00209840  00000-0  20261-2 0  9994
2 47951  97.4233   4.2406 0009603 143.8354 216.3556 15.65751203223468
CubeSX-HSE
1 47952U 21022W   25094.79410282  .00214687  00000-0  20263-2 0  9990
2 47952  97.4243   4.4241 0009641 139.6404 220.5573 15.66306611223477
GRBAlpha
1 47959U 21022AD  25094.76337279  .00188565  00000-0  18134-2 0  9997
2 47959  97.4228   4.5253 0009451 143.6303 216.5601 15.65918967222291
Orbicraft-Zorkiy
1 47960U 21022AE  25094.10909656  .00956081  42641-3  22222-2 0  9990
2 47960  97.4137   8.1780 0009912 142.0656 218.1320 15.97081961223133
TUBIN
1 48900U 21059X   25094.80099305  .00076558  00000-0  11938-2 0  9997
2 48900  97.6718 259.0251 0003872 135.2602 224.8963 15.53583937209806
LEDSAT
1 49069U 21073D   25094.78460019  .00087125  00000-0  14695-2 0  9996
2 49069  97.3935 174.0133 0010375 312.0985  47.9385 15.51299358201208
CUTE
1 49263U 21088D   25094.45127068  .00025251  00000-0  55342-3 0  9993
2 49263  97.4547 168.9123 0010104 123.3810 236.8407 15.44027032194211
TeikyoSat 4
1 49396U 21102B   25094.70410654  .00004397  00000-0  29522-3 0  9990
2 49396  97.4190 135.4970 0012597   8.3662 351.7773 15.07244843186625
Z-Sat
1 49399U 21102E   25094.79427507  .00009789  00000-0  54608-3 0  9990
2 49399  97.3888 138.2891 0017378 336.9203  23.1246 15.13634769187024
KOSEN 1
1 49402U 21102H   25094.69720377  .00012369  00000-0  59117-3 0  9993
2 49402  97.3792 141.1321 0014723 312.6417  47.3576 15.19058922187282
HO-113
1 50466U 21131B   25094.78558053  .00001397  00000-0  45102-3 0  9995
2 50466  98.5085 184.4740 0003550 349.4896  10.6218 14.40693022171976
IRIS-A
1 51044U 22002BN  25094.17595226  .00204516  00000-0  15986-2 0  9996
2 51044  97.3306 171.0525 0000921 133.4421 226.6919 15.71014838179375
Foresail-1
1 52766U 22057AL  25094.36800929  .00172079  00000-0  14689-2 0  9995
2 52766  97.6027 239.4825 0004935 194.1337 165.9787 15.68962165159435
SNUGLITE 2
1 52899U 22065F   25094.42706201  .00003380  00000-0  66898-3 0  9994
2 52899  98.1575 237.0920 0006723 327.4694  32.6093 14.62956745146818
IO-117
1 53106U 22080B   25051.21822557 -.00000003  00000-0  00000+0 0  9995
2 53106  70.1434 106.3440 0008542  48.0089 312.1297  6.42557744 61200
UmKA 1 (RS40S)
1 57172U 23091G   25094.81868557  .00012887  00000-0  70525-3 0  9993
2 57172  97.5660 150.5618 0014662 195.5261 164.5523 15.14289064 97520
CubeBel-2 (EU11S)
1 57175U 23091K   25094.80907296  .00018970  00000-0  94394-3 0  9998
2 57175  97.5658 151.3306 0012540 203.6601 156.4057 15.17587364 97579
VERONIKA
1 58261U 23174F   25094.73266182  .00121220  00000-0  18524-2 0  9994
2 58261  97.4173 177.7833 0006891 265.2697  94.7770 15.53959318 78404
ENSO
1 58470U 23185J   25094.81396587  .00076283  00000-0  14534-2 0  9995
2 58470  97.3790 168.1814 0006499 310.0607  50.0072 15.47900931 74830
EIRSAT-1
1 58472U 23185L   25094.80670242  .00113741  00000-0  17309-2 0  9993
2 58472  97.3766 169.2139 0005531 304.2663  55.8067 15.54110473 74907
SONATE-2
1 59112U 24043Q   25094.63274629  .00032116  00000-0  10102-2 0  9999
2 59112  97.5031 224.6562 0010843 351.0217   9.0829 15.32840645 60223
MO-122
1 60209U 24125G   25094.13778724  .00035068  00000-0  10884-2 0  9995
2 60209  97.2888 306.5927 0020195  19.8079 340.3944 15.33101602 41761
GRBBeta
1 60237U 24128C   25094.04236043  .00008329  00000-0  63628-3 0  9997
2 60237  61.9929 311.4281 0045626  43.2837 317.1823 15.01824601 40205
Curium One
1 60242U 24128H   25094.31080720  .00015936  00000-0  11415-2 0  9990
2 60242  61.9829 309.6663 0045433  38.8900 321.5445 15.03753658 40260
ROBUSTA-3A
1 60243U 24128J   25093.96185009  .00013001  00000-0  94572-3 0  9994
2 60243  61.9899 311.5034 0043806  36.5469 323.8598 15.03363806 40209
CatSat
1 60246U 24125J   25094.16062911  .00017523  00000-0  61269-3 0  9993
2 60246  97.2669 306.5324 0043019 332.5542  27.3426 15.28700479 39833
HYPERVIEW-1G (RS66S)
1 61772U 24199AP  25094.79241525  .00040616  00000-0  13038-2 0  9997
2 61772  97.3642 323.8940 0016164  71.8622 288.4379 15.32065472 66872
AO-123
1 61781U 24199AY  25094.82434059  .00014885  00000-0  55882-3 0  9990
2 61781  97.3652 323.4128 0017933  73.2746 287.0460 15.27147034 66847
ZIMSAT 2
1 61783U 24199BA  25094.82606985  .00056003  00000-0  16327-2 0  9999
2 61783  97.3633 324.1437 0016872  70.8044 289.5024 15.35033203 70045
HADES-R (SO-124)
1 62690U 25009CK  25094.47211908  .00067912  00000-0  28406-2 0  9998
2 62690  97.4122 175.7862 0001835 287.8101  72.2936 15.23315013 12062
HYDRA-T
1 62692U 25009CM  25094.20364938  .00065871  00000-0  27457-2 0  9990
2 62692  97.4124 175.5333 0001890 279.2742  80.8281 15.23442713 12026
JINJUSat 1B
1 63210U 25052A   25094.55674002  .00021734  00000-0  10516-2 0  9997
2 63210  97.4492 349.5749 0004533 163.2907 196.8478 15.18594319  3229
NUSHSAT 1
1 63211U 25052B   25094.55734081  .00024651  00000-0  11916-2 0  9998
2 63211  97.4483 349.5721 0004335 167.7786 192.3554 15.18601401  3221
TEVEL2-4
1 63213U 25052D   25094.55980287  .00023826  00000-0  11589-2 0  9990
2 63213  97.4400 349.5495 0002875 176.1446 183.9811 15.18396541  3222
TEVEL2-5
1 63214U 25052E   25094.55984030  .00023332  00000-0  11352-2 0  9991
2 63214  97.4400 349.5497 0002862 176.1024 184.0232 15.18390918  3224
TEVEL2-6
1 63215U 25052F   25094.56026602  .00023329  00000-0  11363-2 0  9993
2 63215  97.4401 349.5492 0002863 177.3693 182.7556 15.18352673  3227
TEVEL2-1
1 63217U 25052H   25094.49675465  .00023374  00000-0  11445-2 0  9995
2 63217  97.4377 349.4754 0002408 196.0511 164.0647 15.18169618  3211
TEVEL2-2
1 63218U 25052J   25094.49686758  .00023975  00000-0  11740-2 0  9998
2 63218  97.4378 349.4752 0002450 197.2155 162.8996 15.18161819  3213
TEVEL2-3
1 63219U 25052K   25094.49687383  .00023471  00000-0  11495-2 0  9992
2 63219  97.4377 349.4755 0002423 197.3650 162.7501 15.18161563  3214
TEVEL2-8
1 63237U 25052AD  25094.57748146  .00023332  00000-0  11792-2 0  9992
2 63237  97.4440 349.5358 0006536 237.2776 122.7828 15.17046103  3227
TEVEL2-9
1 63238U 25052AE  25094.51184026  .00022645  00000-0  11458-2 0  9993
2 63238  97.4442 349.4709 0006611 237.6262 122.4332 15.17011940  3214
TEVEL2-7
1 63239U 25052AF  25094.57820617  .00022979  00000-0  11637-2 0  9992
2 63239  97.4440 349.5351 0006616 237.6168 122.4426 15.16978581  3224
